Regional Weather Roundup
Issued by NWS

Home | Current Version | Previous Version | Graphics & Text | Print | Product List | Glossary On
Versions: 1 2 3 4 5 6 7 8 9 10 11 12 13 14 15 16 17 18 19 20 21 22 23 24 25 26 27 28 29 30 31 32 33 34 35 36 37 38 39 40 41 42 43 44 45 46 47 48 49 50
000
ASUS43 KMKX 250700
RWRWI

WISCONSIN REGIONAL WEATHER ROUNDUP
NATIONAL WEATHER SERVICE MILWAUKEE/SULLIVAN WI
100 AM CST SAT FEB 25 2017

NOTE: "FAIR" INDICATES FEW OR NO CLOUDS BELOW 12,000 FEET WITH NO
SIGNIFICANT WEATHER AND/OR OBSTRUCTIONS TO VISIBILITY.

WIZ001-002-006>008-014>016-023>028-250800-
NORTHWEST WISCONSIN

CITY           SKY/WX    TMP DP  RH WIND       PRES   REMARKS
SUPERIOR ARPT  CLOUDY    16   4  60 N10G18    29.89S WCI   3
ASHLAND        CLOUDY    19   8  62 NW15G23   29.79F WCI   5
HAYWARD        CLOUDY    17   5  59 NW12G20   29.78S WCI   4
SIREN          CLEAR     17   6  62 N13G18    29.86S WCI   3
CUMBERLAND     CLOUDY    18   5  57 N22G28    29.79S WCI   0
RICE LAKE      CLOUDY    18   7  60 NW13G20   29.81R WCI   5
CHETEK         CLOUDY    18   9  67 N9G22     29.79R WCI   7
LADYSMITH      LGT SNOW  17  13  81 NW9       29.76S WCI   6
EAU CLAIRE     NOT AVBL
MENOMONIE      CLOUDY    20   8  60 NW10      29.81R WCI   9
NEW RICHMOND   CLEAR     19   6  59 N16       29.85S WCI   4
OSCEOLA        CLOUDY    20   8  61 NW10G20   29.90S WCI   8
$$

WIZ003>005-009-010-017-018-250800-
NORTH CENTRAL WISCONSIN

CITY           SKY/WX    TMP DP  RH WIND       PRES   REMARKS
MANITOWISH WTR LGT SNOW  14  12  92 N6        29.65F WCI   5
ARBOR VITAE    LGT SNOW  17  13  84 N12G23      N/A  WCI   4
WOODRUFF       LGT SNOW  17  13  84 N12G23      N/A  WCI   4
RHINELANDER    LGT SNOW  17  12  80 NW10      29.62F WCI   5
EAGLE RIVER    LGT SNOW  16  11  82 N12       29.61S WCI   2
LAND O LAKES   LGT SNOW  16  12  84 N13G20    29.62F WCI   2
PHILLIPS       LGT SNOW  15  11  86 NW12      29.68S WCI   1
TOMAHAWK       LGT SNOW  16  11  83 NW9G16    29.66S WCI   4
MEDFORD        LGT SNOW  15  11  84 NW14      29.67S WCI   0
MERRILL        NOT AVBL
$$

WIZ029-030-035-036-043>047-250800-
CENTRAL WISCONSIN

CITY           SKY/WX    TMP DP  RH WIND       PRES   REMARKS
WAUSAU         CLOUDY    18  12  77 NW12G20   29.62F WCI   5
MOSINEE        FLURRIES  19  16  86 N14G22    29.65S WCI   6
MARSHFIELD     LGT SNOW  17  11  77 NW20      29.66S WCI   1
STEVENS POINT  LGT SNOW  17  14  86 NW7       29.64F WCI   8
WAUPACA        FLURRIES  22  17  79 NW7       29.63S WCI  14
WAUTOMA        LGT SNOW  20  17  88 NW9       29.65S FOG     WCI   9
WISC RAPIDS    LGT SNOW  19  15  84 NW10      29.67S FOG     WCI   7
CAMP DOUGLAS   LGT SNOW  18  14  86 NW10      29.71R WCI   6
$$

WIZ011>013-019>022-031-037>040-048>050-250800-
NORTHEAST WISCONSIN

CITY           SKY/WX    TMP DP  RH WIND       PRES   REMARKS
ANTIGO         LGT SNOW  17  13  84 N20       29.59F WCI   0
SHAWANO        FLURRIES  23  17  78 CALM      29.60F
OCONTO         CLOUDY    22  18  84 N10G16    29.57F WCI  11
STURGEON BAY   MIX PCPN  23  21  92 MISG      29.53F FOG
GREEN BAY      CLOUDY    22  20  92 NW12      29.57F WCI  10
MANITOWOC      NOT AVBL
APPLETON       FLURRIES  21  19  93 NW10      29.58R WCI  10
CLINTONVILLE   LGT SNOW  21  16  79 N8        29.61F WCI  12
OSHKOSH        LGT SNOW  21  17  84 NW13      29.60S FOG     WCI   9
$$

WIZ032>034-041-042-053>061-250800-
SOUTHWEST WISCONSIN

CITY           SKY/WX    TMP DP  RH WIND       PRES   REMARKS
LA CROSSE      FLURRIES  21  13  71 NW16      29.80S WCI   7
SPARTA         LGT SNOW  19  15  85 NW13G21   29.76R WCI   5
VIROQUA        CLOUDY    17  15  90 NW14      29.72R WCI   3
BOSCOBEL       LGT SNOW  21  15  78 NW10      29.76R WCI  10
PRAIRIE DU CHI LGT SNOW  21  15  78 NW14G20   29.79R WCI   8
PLATTEVILLE    CLOUDY    21  19  94 NW7       29.72R WCI  12
$$

WIZ056-057-062-063-064-067-068-250800-
SOUTH CENTRAL WISCONSIN

CITY           SKY/WX    TMP DP  RH WIND       PRES   REMARKS
REEDSBURG      LGT SNOW  19  17  92 NW7       29.69R WCI  10
BARABOO/DELLS  LGT SNOW  20  18  91 NW6       29.67R WCI  12
LONE ROCK      LGT SNOW  19  16  86 W13       29.73R VSB 1   WCI   7
MINERAL POINT  LGT SNOW  23  23 100 CALM      29.68S
MADISON        LGT SNOW  21  17  84 NW14G22   29.65S FOG     WCI   8
MIDDLETON      CLOUDY    23  21  91 NW7       29.66S WCI  15
WATERTOWN      LGT SNOW  24  23  98 NW10G16   29.61F WCI  13
MONROE         LGT SNOW  23  21  93 NW10G22   29.65R WCI  12
JANESVILLE     LGT SNOW  28  27  93 NW16      29.64R WCI  17
$$

WIZ051-052-058>065-066-070>072-250800-
SOUTHEAST WISCONSIN

CITY           SKY/WX    TMP DP  RH WIND       PRES   REMARKS
MILWAUKEE      FLURRIES  28  23  81 NW13      29.58F WCI  17
WAUKESHA       LGT SNOW  23  21  93 NW12      29.60S WCI  12
MILWAUKEE/TIMM LGT SNOW  27  21  80 NW7       29.60R WCI  19
RACINE         CLOUDY    28  23  81 NW8       29.60F WCI  20
KENOSHA        CLOUDY    28  24  85 NW8       29.59F WCI  20
FOND DU LAC    LGT SNOW  22  17  81 NW14      29.61R WCI   9
SHEBOYGAN      LGT SNOW  23  20  88 NW13      29.57R FOG     WCI  11
WEST BEND      FLURRIES  25  23  93 CALM      29.58S
JUNEAU         LGT SNOW  21  19  91 NW5       29.63R WCI  15
$$

LSZ147-162-250800-
LAKE SUPERIOR

STATION/POSITION TIME  TEMP    WIND        PRES    WAVE
                       AIR SEA DIR/SP/G            HT/PER
                 (UTC) (F)     (DEG/KT/KT) (MB)    (FT/S)
DEVILS ISLAND    0600   19     340/ 17/ 22 1010.9F
PORT WING        0640   19     330/ 19/ 23 1010.8F
SAXON HARBOR     0630   22     350/ 18/ 21 1008.1F
$$

LMZ867-665-643>646-250800-
LAKE MICHIGAN

STATION/POSITION TIME  TEMP    WIND        PRES    WAVE
                       AIR SEA DIR/SP/G            HT/PER
                 (UTC) (F)     (DEG/KT/KT) (MB)    (FT/S)
CHAMBERS ISLAND  0640   24     310/  3/  4 1000.3S
NORTHPORT PIER   0640   27     330/  4/  5  999.7F
SISTER BAY       0605   26        CALM       N/A
KEWAUNEE LAKESHO 0630   23     320/ 13/ 20 1000.3R
SHEBOYGAN LAKESH 0600   25     320/  5/  6 1001.6F
PORT WASHINGTON  0640   25     310/  9/ 14 1003.0S
MILWAUKEE LAKESH 0630   27     310/ 10/ 13   N/A
KENOSHA   LAKESH 0600   29     300/ 11/ 15 1002.4
$$

TC  - TEMPERATURE IN CELSIUS
VSB - VISIBILITY IN STATUTE MILES
WCI - WIND CHILL INDEX
HX  - HEAT INDEX




USA.gov is the U.S. government's official web portal to all federal, state and local government web resources and services.